TimeMDT,TemperatureF,Dew PointF,Humidity,Sea Level PressureIn,VisibilityMPH,Wind Direction,Wind SpeedMPH,Gust SpeedMPH,PrecipitationIn,Events,Conditions,WindDirDegrees,DateUTC
4:13 AM,21.2,19.4,93,30.21,-9999.0,North,-9999.0,-,N/A,,Overcast,0,2012-10-13 10:13:00
4:33 AM,21.2,19.4,93,30.20,-9999.0,North,-9999.0,-,N/A,,Overcast,0,2012-10-13 10:33:00
4:53 AM,21.2,19.4,93,30.19,-9999.0,North,-9999.0,-,N/A,,Overcast,0,2012-10-13 10:53:00
5:13 AM,21.2,19.4,93,30.19,-9999.0,North,-9999.0,-,N/A,,Overcast,0,2012-10-13 11:13:00
5:33 AM,21.2,19.4,93,30.21,-9999.0,North,-9999.0,-,N/A,,Overcast,0,2012-10-13 11:33:00
5:53 AM,21.2,19.4,93,30.20,-9999.0,North,-9999.0,-,N/A,,Overcast,0,2012-10-13 11:53:00
6:13 AM,21.2,19.4,93,30.21,-9999.0,North,-9999.0,-,N/A,,Overcast,0,2012-10-13 12:13:00
6:33 AM,21.2,19.4,93,30.21,-9999.0,North,-9999.0,-,N/A,,Overcast,0,2012-10-13 12:33:00
6:53 AM,21.2,19.4,93,30.20,-9999.0,North,-9999.0,-,N/A,,Overcast,0,2012-10-13 12:53:00
7:13 AM,21.2,19.4,93,30.20,-9999.0,North,-9999.0,-,N/A,,Overcast,0,2012-10-13 13:13:00
7:53 AM,21.2,21.2,100,30.20,-9999.0,North,-9999.0,-,N/A,,Overcast,0,2012-10-13 13:53:00
8:33 AM,23.0,21.2,93,30.20,-9999.0,North,-9999.0,-,N/A,,Overcast,0,2012-10-13 14:33:00
8:53 AM,23.0,21.2,93,30.22,-9999.0,North,-9999.0,-,N/A,,Overcast,0,2012-10-13 14:53:00
9:13 AM,23.0,21.2,93,30.22,-9999.0,North,-9999.0,-,N/A,,Overcast,0,2012-10-13 15:13:00
9:33 AM,23.0,21.2,93,30.23,-9999.0,North,-9999.0,-,N/A,,Overcast,0,2012-10-13 15:33:00
9:53 AM,23.0,21.2,93,30.24,-9999.0,North,-9999.0,-,N/A,,Overcast,0,2012-10-13 15:53:00
10:13 AM,23.0,21.2,93,30.24,-9999.0,North,-9999.0,-,N/A,,Overcast,0,2012-10-13 16:13:00
10:33 AM,23.0,23.0,100,30.26,-9999.0,North,-9999.0,-,N/A,,Overcast,0,2012-10-13 16:33:00
10:53 AM,23.0,23.0,100,30.27,-9999.0,North,-9999.0,-,N/A,,Overcast,0,2012-10-13 16:53:00
11:13 AM,24.8,23.0,93,30.25,-9999.0,North,-9999.0,-,N/A,,Overcast,0,2012-10-13 17:13:00
11:33 AM,24.8,23.0,93,30.24,-9999.0,North,-9999.0,-,N/A,,Overcast,0,2012-10-13 17:33:00
11:53 AM,24.8,23.0,93,30.26,-9999.0,North,-9999.0,-,N/A,,Overcast,0,2012-10-13 17:53:00
12:13 PM,26.6,24.8,93,30.27,-9999.0,North,-9999.0,-,N/A,,Overcast,0,2012-10-13 18:13:00
12:33 PM,26.6,24.8,93,30.27,-9999.0,North,-9999.0,-,N/A,,Overcast,0,2012-10-13 18:33:00
12:53 PM,26.6,24.8,93,30.27,-9999.0,North,-9999.0,-,N/A,,Overcast,0,2012-10-13 18:53:00
1:13 PM,26.6,24.8,93,30.27,-9999.0,North,-9999.0,-,N/A,,Overcast,0,2012-10-13 19:13:00
1:33 PM,26.6,26.6,100,30.27,-9999.0,North,-9999.0,-,N/A,,Overcast,0,2012-10-13 19:33:00
1:53 PM,26.6,26.6,100,30.29,-9999.0,North,-9999.0,-,N/A,,Overcast,0,2012-10-13 19:53:00
2:13 PM,26.6,26.6,100,30.30,-9999.0,North,-9999.0,-,N/A,,Overcast,0,2012-10-13 20:13:00
2:33 PM,26.6,26.6,100,30.31,-9999.0,North,-9999.0,-,N/A,,Overcast,0,2012-10-13 20:33:00
2:53 PM,28.4,26.6,93,30.31,-9999.0,East,32.2,-,N/A,,Overcast,90,2012-10-13 20:53:00
3:13 PM,28.4,26.6,93,30.33,-9999.0,North,-9999.0,-,N/A,,Overcast,0,2012-10-13 21:13:00
3:33 PM,28.4,26.6,93,30.36,-9999.0,North,-9999.0,-,N/A,,Overcast,0,2012-10-13 21:33:00
3:53 PM,28.4,26.6,93,30.37,-9999.0,North,-9999.0,-,N/A,,Overcast,0,2012-10-13 21:53:00
4:13 PM,28.4,26.6,93,30.38,-9999.0,North,-9999.0,-,N/A,,Overcast,0,2012-10-13 22:13:00
4:53 PM,28.4,28.4,100,30.39,-9999.0,North,-9999.0,-,N/A,,Overcast,0,2012-10-13 22:53:00
5:13 PM,28.4,28.4,100,30.40,-9999.0,North,-9999.0,-,N/A,,Overcast,0,2012-10-13 23:13:00
5:33 PM,28.4,28.4,100,30.41,-9999.0,North,-9999.0,-,N/A,,Overcast,0,2012-10-13 23:33:00
6:33 PM,28.4,28.4,100,30.44,-9999.0,North,-9999.0,-,N/A,,Overcast,0,2012-10-14 00:33:00
6:53 PM,28.4,28.4,100,30.45,-9999.0,North,-9999.0,-,N/A,,Overcast,0,2012-10-14 00:53:00
7:33 PM,28.4,28.4,100,30.47,-9999.0,North,-9999.0,-,N/A,,Overcast,0,2012-10-14 01:33:00
7:53 PM,28.4,26.6,93,30.48,-9999.0,North,-9999.0,-,N/A,,Overcast,0,2012-10-14 01:53:00
8:13 PM,28.4,26.6,93,30.48,-9999.0,North,-9999.0,-,N/A,,Overcast,0,2012-10-14 02:13:00
8:33 PM,28.4,26.6,93,30.49,-9999.0,North,-9999.0,-,N/A,,Overcast,0,2012-10-14 02:33:00
8:53 PM,28.4,26.6,93,30.49,-9999.0,North,-9999.0,-,N/A,,Overcast,0,2012-10-14 02:53:00
9:13 PM,28.4,26.6,93,30.49,-9999.0,North,-9999.0,-,N/A,,Unknown,0,2012-10-14 03:13:00
9:53 PM,28.4,26.6,93,30.50,-9999.0,North,-9999.0,-,N/A,,Overcast,0,2012-10-14 03:53:00
10:13 PM,28.4,26.6,93,30.50,-9999.0,North,-9999.0,-,N/A,,Overcast,0,2012-10-14 04:13:00
10:33 PM,28.4,26.6,93,30.51,-9999.0,North,-9999.0,-,N/A,,Overcast,0,2012-10-14 04:33:00